Wind_Speed
17 18 18 18 18 17 17 17 17 18 18 18 17 17 18 19 19 19 19 19 19 20 20 20 20 20 20 20 19 20 20 20 21 20 21 21 21 21 21 21 21 21 21
18 18 19 18 18 18 17 17 17 18 18 18 18 18 19 19 19 20 20 20 20 21 21 21 21 21 22 21 21 21 21 22 22 21 22 22 21 22 21 21 21 21 22
18 18 18 18 18 18 18 18 18 18 18 18 19 18 19 19 20 21 21 21 21 21 22 23 23 22 22 22 22 22 22 22 23 22 23 23 22 22 22 22 22 21 22
18 18 19 18 18 18 18 18 18 17 17 18 19 19 19 20 21 21 22 22 22 22 22 23 23 23 23 23 23 23 23 23 23 23 23 23 23 23 23 23 23 23 22
18 18 18 18 18 18 18 18 17 17 18 19 19 20 20 20 21 21 22 22 22 23 23 23 23 24 24 24 23 23 23 23 23 23 23 24 25 24 25 25 24 25 24
17 17 17 17 17 17 18 18 18 18 18 19 19 20 20 21 21 22 22 22 23 23 23 23 24 24 24 24 24 24 24 24 24 24 24 24 25 25 26 26 25 25 25
17 17 17 16 17 17 18 18 18 18 18 18 19 20 21 22 22 22 23 22 22 22 23 23 23 24 24 24 24 24 24 24 25 26 26 26 26 26 27 27 27 26 26
17 16 16 17 17 17 18 18 18 18 18 18 19 21 22 22 22 22 22 22 22 22 22 23 23 23 24 24 24 25 25 26 26 27 27 28 28 28 28 29 28 28 27
17 16 16 16 17 17 17 17 17 18 18 19 19 20 21 21 22 22 22 22 22 22 22 22 23 23 23 24 25 25 26 27 27 28 28 29 29 29 29 30 29 29 28
17 17 17 17 17 17 17 17 17 18 19 19 19 19 20 20 21 21 21 21 21 21 22 22 22 23 24 24 25 25 26 27 28 29 29 29 30 30 29 30 30 30 29
17 17 17 17 16 16 17 17 17 18 19 19 19 19 19 19 19 20 20 21 21 22 22 23 22 23 24 24 25 26 27 27 27 28 29 29 29 29 29 30 30 31 30
17 16 16 16 17 17 17 17 18 18 18 19 18 19 19 20 19 19 20 20 20 21 22 23 23 23 23 24 24 26 26 27 27 27 28 28 29 30 30 30 31 31 31
16 16 16 17 17 17 17 17 18 18 18 18 19 18 19 19 19 20 20 20 21 21 22 23 24 24 23 24 24 25 25 25 26 26 27 28 29 30 30 31 31 32 32
15 15 15 16 16 16 16 16 17 17 18 18 18 17 18 19 20 19 19 19 20 21 22 23 24 25 25 25 26 26 26 26 26 27 27 28 29 29 30 31 32 32 32
14 14 14 14 14 15 15 16 16 17 17 17 17 18 18 19 19 19 19 19 19 19 20 22 23 24 25 26 26 26 27 28 27 27 28 28 29 29 30 30 30 31 31
15 14 13 13 13 14 15 15 15 15 15 16 16 17 18 17 18 18 19 20 20 20 21 22 23 24 25 25 25 26 26 27 27 28 28 29 28 29 28 29 29 29 30
14 13 13 13 13 14 14 14 15 15 15 16 16 17 18 18 18 19 20 20 21 21 21 22 22 23 24 24 25 26 26 26 27 28 28 28 29 29 28 29 29 29 29
14 13 13 13 13 13 13 14 15 15 16 16 17 17 18 18 19 19 19 20 20 21 21 21 22 22 23 24 25 26 26 26 26 27 28 28 28 29 29 30 30 30 30
13 13 13 13 13 14 14 15 15 15 16 16 17 17 18 18 18 19 20 21 21 21 22 22 22 23 23 24 24 24 25 26 26 26 27 28 28 28 29 30 30 31 31
13 13 13 14 14 14 15 15 16 16 16 17 16 17 18 18 18 19 20 21 21 22 23 23 23 23 23 24 24 24 24 25 26 26 26 26 27 27 28 29 30 31 31
14 14 14 14 15 16 16 17 17 17 17 17 16 17 18 19 19 19 20 21 21 22 22 23 23 24 24 24 24 24 24 25 25 26 26 26 26 27 28 28 29 30 30
14 14 15 15 15 16 17 17 17 17 17 17 18 18 19 19 20 20 20 21 21 22 23 23 24 24 24 24 24 24 24 25 25 25 26 26 27 27 27 27 27 29 30
15 15 16 16 16 17 17 17 17 17 17 17 18 18 19 19 19 20 20 21 21 21 22 22 23 23 23 24 24 24 24 25 25 26 26 26 27 27 28 27 27 27 28
15 16 17 17 17 17 17 17 17 17 17 18 18 18 19 19 19 20 20 21 21 21 21 22 22 22 23 23 23 23 24 25 25 26 26 26 26 27 28 28 28 28 27
16 17 17 17 18 18 18 18 18 17 17 18 18 18 19 19 19 19 20 20 21 22 22 22 22 23 24 25 24 24 24 24 24 24 25 25 26 26 27 28 28 28 28
17 17 17 18 18 18 18 18 18 18 18 19 19 19 19 20 20 20 20 20 21 22 22 22 22 23 24 25 25 25 25 24 24 24 25 26 26 26 26 26 27 28 29
Wind_Direction
283 283 282 281 279 277 276 271 270 271 267 265 262 259 257 256 254 254 253 252 251 252 252 252 252 252 253 253 252 251 253 254 252 251 250 251 253 252 251 250 249 249 249
283 283 283 283 280 277 274 272 272 271 267 262 259 257 256 255 253 254 255 254 254 254 253 252 253 253 253 255 255 255 257 257 254 253 251 251 252 253 252 250 250 249 249
283 283 283 281 280 275 274 274 273 270 265 261 258 257 256 256 256 257 257 257 257 257 255 253 253 253 252 254 256 256 258 258 256 256 254 252 252 252 252 252 251 251 251
282 283 282 279 278 276 273 273 271 268 265 262 258 257 257 256 258 258 257 259 258 257 256 255 254 253 253 254 255 256 258 259 257 256 253 253 253 254 253 252 253 253 252
282 284 282 276 273 274 274 271 268 267 266 264 260 258 258 259 260 260 259 259 259 258 255 255 255 255 256 255 256 258 258 260 258 256 255 254 253 254 254 253 253 254 254
283 283 284 279 276 273 270 269 269 269 268 265 261 259 258 260 260 260 260 259 258 257 256 255 257 257 257 257 256 257 258 259 258 257 256 255 254 254 255 255 254 254 254
285 283 283 280 277 275 273 271 270 269 268 266 263 261 261 260 260 261 260 258 258 258 258 257 257 258 257 257 256 257 258 259 259 258 256 256 256 254 255 256 254 253 253
284 282 281 281 279 277 274 271 269 269 270 268 266 264 263 262 262 261 258 257 257 258 258 258 259 259 258 258 257 258 258 260 259 258 257 256 255 254 254 254 253 252 252
285 283 281 282 281 278 275 271 269 269 270 270 270 269 267 265 264 264 262 259 258 258 258 258 259 259 260 260 259 259 260 261 261 260 259 257 256 255 255 254 254 253 252
286 284 281 280 280 280 277 273 271 271 271 271 271 272 270 268 265 262 260 261 260 259 259 261 263 262 262 262 261 261 261 261 262 261 259 258 257 255 256 254 254 253 254
285 284 283 279 277 279 278 275 273 274 272 271 272 272 271 271 268 262 260 260 260 261 261 262 263 263 263 263 263 262 262 262 261 260 260 260 258 257 257 256 254 253 254
284 281 282 278 276 277 277 276 276 278 277 274 274 272 272 272 270 266 263 263 263 263 263 263 264 264 264 264 264 264 264 262 261 260 260 259 260 258 257 257 255 254 253
287 283 282 280 278 276 276 278 277 279 278 276 274 273 273 272 270 267 265 265 264 264 264 265 265 265 266 266 266 265 265 263 261 261 261 260 259 259 258 258 257 255 254
289 290 288 284 280 279 279 280 281 281 278 275 272 273 274 273 271 269 268 267 266 266 267 267 266 266 266 266 266 265 264 263 263 263 262 260 259 260 259 258 258 256 255
296 295 291 287 285 283 281 279 280 282 280 274 272 274 275 273 273 271 270 269 270 271 272 270 269 268 268 268 268 266 265 264 264 263 263 261 261 261 260 259 258 256 255
298 295 292 293 292 288 286 283 282 283 282 281 280 279 278 276 277 274 272 271 272 273 274 272 271 271 270 271 270 268 268 266 265 264 264 263 262 262 261 259 258 257 256
299 294 291 292 293 293 292 290 287 285 281 282 282 279 279 278 277 275 274 275 275 276 276 275 274 272 272 272 271 269 268 267 265 263 263 263 263 262 261 260 258 257 257
298 294 291 292 293 294 294 292 289 287 283 283 283 281 281 281 278 277 275 275 276 277 278 278 277 276 275 274 273 271 269 268 266 264 263 263 263 262 263 261 260 259 259
296 294 293 293 292 293 293 292 290 287 285 283 283 283 283 285 280 276 275 277 278 278 279 279 278 278 277 276 274 272 271 268 267 265 263 264 264 264 264 263 262 261 260
295 293 291 292 293 292 292 293 292 289 287 284 283 283 284 285 284 282 281 281 280 279 279 279 280 278 277 276 274 273 272 269 268 266 265 265 265 266 266 264 263 263 262
296 291 290 291 293 293 293 293 292 289 288 287 287 287 287 286 286 285 284 283 282 282 281 281 282 280 279 276 275 274 272 270 269 267 267 268 268 268 268 266 264 264 263
296 293 292 294 294 294 294 293 293 291 289 289 290 290 290 289 287 286 285 284 284 284 284 283 282 282 279 276 274 274 273 272 270 269 269 269 269 269 270 268 267 266 266
296 295 293 294 295 295 295 293 291 291 291 290 290 290 289 287 287 285 286 287 287 288 289 286 283 282 278 276 276 275 273 272 272 271 270 269 270 270 271 270 269 268 268
295 296 295 294 295 295 292 293 292 292 291 292 293 293 291 289 287 286 286 287 288 291 291 288 286 282 280 280 279 277 275 272 271 271 271 271 271 271 271 272 270 268 268
294 295 296 295 294 294 293 293 293 292 294 295 294 294 294 292 290 289 289 289 290 291 292 290 286 284 284 284 281 279 277 274 272 270 271 272 272 272 272 272 272 271 271
293 294 295 294 294 294 295 295 294 295 295 295 294 294 294 293 292 292 292 291 292 292 294 292 289 287 286 286 283 280 278 275 272 271 273 274 273 273 272 271 271 271 271
Height
5834 5833 5832 5831 5831 5831 5831 5831 5831 5831 5832 5833 5834 5835 5836 5837 5838 5839 5840 5841 5843 5844 5845 5847 5848 5850 5851 5853 5854 5856 5857 5859 5860 5861 5863 5865 5866 5867 5869 5870 5872 5873 5875
5829 5828 5827 5827 5826 5826 5826 5826 5827 5827 5827 5828 5829 5830 5831 5833 5833 5835 5836 5837 5838 5839 5841 5842 5844 5845 5847 5848 5850 5851 5853 5854 5856 5857 5859 5860 5861 5863 5864 5866 5867 5868 5870
5824 5823 5823 5822 5821 5821 5821 5822 5822 5822 5823 5824 5825 5825 5827 5828 5829 5830 5831 5832 5833 5834 5836 5837 5839 5840 5842 5843 5845 5846 5848 5849 5851 5852 5853 5855 5856 5858 5859 5861 5862 5864 5865
5819 5818 5818 5817 5816 5816 5816 5817 5817 5818 5818 5819 5820 5821 5822 5823 5824 5825 5826 5827 5828 5829 5831 5832 5833 5835 5836 5838 5839 5841 5842 5843 5845 5846 5848 5849 5851 5853 5854 5856 5857 5859 5860
5814 5813 5812 5811 5811 5811 5812 5812 5812 5813 5814 5814 5815 5816 5817 5818 5819 5820 5821 5822 5823 5824 5825 5826 5828 5829 5831 5832 5834 5835 5836 5838 5839 5840 5842 5843 5845 5847 5849 5850 5852 5853 5855
5810 5809 5808 5807 5807 5807 5807 5807 5808 5808 5809 5809 5810 5811 5812 5813 5814 5815 5816 5817 5817 5818 5819 5821 5822 5823 5825 5826 5828 5829 5831 5832 5833 5835 5836 5837 5839 5841 5842 5844 5846 5847 5848
5806 5804 5804 5803 5802 5802 5802 5802 5803 5803 5804 5804 5805 5806 5807 5808 5809 5809 5810 5811 5812 5813 5814 5815 5816 5817 5819 5820 5822 5823 5824 5826 5827 5828 5829 5831 5833 5834 5836 5837 5839 5841 5842
5801 5800 5800 5799 5798 5798 5798 5798 5798 5799 5799 5799 5800 5801 5802 5803 5803 5804 5804 5805 5806 5807 5808 5809 5810 5811 5813 5814 5815 5816 5818 5819 5820 5821 5822 5824 5825 5827 5829 5830 5832 5834 5835
5797 5796 5796 5795 5795 5794 5794 5794 5794 5794 5794 5795 5795 5796 5796 5797 5798 5798 5798 5799 5800 5801 5802 5803 5804 5805 5806 5807 5808 5809 5810 5812 5812 5813 5815 5816 5818 5819 5821 5823 5824 5826 5828
5793 5792 5792 5791 5791 5790 5790 5790 5789 5789 5789 5790 5790 5790 5791 5791 5792 5793 5793 5793 5794 5795 5796 5797 5798 5799 5800 5801 5802 5803 5804 5805 5805 5806 5807 5808 5810 5812 5813 5815 5817 5818 5820
5789 5788 5787 5787 5786 5786 5786 5785 5785 5785 5784 5785 5785 5785 5785 5785 5786 5787 5788 5788 5789 5790 5790 5791 5792 5793 5794 5795 5795 5796 5797 5797 5798 5799 5800 5801 5802 5804 5805 5807 5808 5810 5812
5784 5784 5783 5782 5782 5781 5781 5781 5780 5780 5779 5779 5779 5780 5780 5780 5781 5781 5782 5782 5783 5784 5785 5785 5786 5786 5787 5788 5788 5789 5789 5790 5791 5791 5792 5793 5794 5795 5797 5798 5800 5801 5803
5780 5779 5779 5778 5777 5777 5776 5776 5775 5775 5774 5774 5774 5774 5774 5775 5775 5775 5776 5777 5777 5778 5778 5779 5779 5780 5780 5781 5781 5782 5782 5782 5783 5784 5785 5785 5786 5787 5788 5790 5791 5792 5794
5777 5776 5775 5774 5773 5772 5772 5771 5770 5770 5769 5769 5769 5769 5769 5770 5769 5770 5770 5771 5771 5772 5772 5773 5772 5773 5773 5774 5774 5774 5775 5775 5776 5776 5777 5777 5778 5779 5780 5781 5782 5783 5785
5773 5772 5771 5770 5769 5768 5767 5766 5766 5765 5764 5764 5764 5764 5765 5765 5764 5764 5764 5765 5766 5766 5766 5766 5766 5766 5766 5766 5766 5766 5767 5767 5768 5768 5769 5769 5770 5770 5771 5772 5773 5775 5776
5769 5768 5767 5766 5765 5764 5763 5762 5761 5760 5760 5760 5759 5759 5759 5759 5759 5759 5759 5759 5759 5760 5760 5759 5759 5759 5759 5759 5759 5759 5759 5759 5759 5760 5760 5761 5761 5762 5763 5764 5764 5766 5767
5766 5765 5764 5763 5762 5761 5759 5758 5757 5756 5756 5755 5755 5755 5754 5754 5754 5754 5753 5753 5753 5753 5753 5753 5752 5752 5752 5752 5751 5751 5751 5751 5751 5751 5752 5752 5753 5753 5754 5755 5756 5757 5758
5763 5762 5760 5759 5758 5757 5756 5755 5753 5752 5752 5751 5750 5750 5749 5749 5748 5748 5748 5747 5747 5747 5747 5747 5746 5745 5745 5744 5744 5743 5743 5743 5743 5743 5744 5744 5744 5745 5745 5746 5747 5748 5749
5760 5758 5757 5756 5755 5754 5752 5751 5750 5749 5748 5747 5746 5745 5744 5743 5743 5742 5742 5742 5741 5741 5741 5740 5739 5738 5738 5737 5736 5736 5735 5735 5735 5735 5735 5736 5736 5736 5736 5737 5738 5738 5739
5756 5755 5754 5752 5751 5750 5749 5747 5746 5745 5744 5743 5741 5740 5740 5739 5738 5737 5736 5735 5735 5734 5734 5733 5732 5731 5730 5729 5729 5728 5727 5727 5727 5727 5727 5727 5727 5727 5727 5728 5729 5729 5730
5752 5751 5750 5749 5747 5746 5745 5743 5742 5741 5739 5738 5737 5736 5735 5734 5733 5732 5730 5730 5729 5728 5727 5726 5725 5724 5723 5722 5721 5720 5719 5719 5718 5718 5718 5719 5718 5719 5718 5718 5719 5719 5720
5748 5747 5746 5745 5744 5742 5741 5739 5738 5736 5735 5734 5732 5731 5730 5729 5727 5726 5725 5724 5723 5722 5720 5719 5718 5716 5715 5714 5713 5712 5711 5711 5711 5711 5710 5710 5710 5710 5709 5709 5709 5710 5710
5744 5743 5742 5741 5740 5738 5737 5735 5733 5732 5730 5729 5727 5726 5725 5723 5722 5720 5719 5718 5717 5715 5713 5712 5710 5709 5707 5706 5705 5704 5703 5703 5703 5702 5702 5702 5701 5701 5700 5700 5700 5700 5700
5740 5739 5738 5737 5735 5734 5732 5730 5729 5727 5725 5724 5722 5721 5719 5717 5716 5715 5713 5712 5710 5708 5707 5705 5703 5702 5700 5699 5697 5697 5695 5695 5695 5694 5693 5693 5693 5692 5691 5691 5690 5690 5690
5736 5735 5734 5732 5731 5729 5727 5726 5724 5722 5721 5719 5717 5715 5713 5712 5710 5709 5707 5706 5704 5702 5699 5697 5696 5694 5693 5691 5689 5689 5688 5687 5687 5686 5685 5685 5684 5683 5683 5682 5681 5681 5681
5731 5730 5729 5727 5726 5724 5722 5721 5719 5717 5715 5713 5712 5710 5708 5706 5704 5702 5701 5699 5697 5695 5693 5691 5689 5687 5685 5683 5681 5680 5680 5679 5679 5678 5677 5676 5676 5675 5674 5674 5673 5672 5671